Flag for Spain Weather past 2 weeks in Alicante, Spain

Now
86 °F

Passing clouds.


Feels Like: 85 °F
Forecast: 68 / 82 °F
Wind: 6 mph from Southwest

Location: Alicante / El Altet

Current Time: Sep 20, 2014 at 12:36:13 PM

Latest Report: Sep 20, 2014 at 12:00 PM


Visibility: N/A

Pressure: 30.01 "Hg

Humidity: 38%

Dew point: 57 °F

Location of AlicanteLocation

Historic Weather in Alicante — Graph

°F

Alicante temperature yesterday

Maximum temperature yesterday: 90 °F (at 2:00 PM)
Minimum temperature yesterday: 70 °F (at 5:00 AM)
Average temperature yesterday: 79 °F

Past Weeks' High & Low Weather Summary

 TemperatureHumidityPressure
High95 °F (Sep 11, 2:00 PM)94% (Sep 17, 2:00 AM)30.01 "Hg (Sep 17, 2:00 AM)
Low66 °F (Sep 17, 7:00 AM)20% (Sep 11, 2:00 PM)29.71 "Hg (Sep 17, 6:30 PM)
Average80 °F63%29.89 "Hg
* Reported Sep 5 11:00 AM — Sep 20 11:30 AM, Alicante, Weather by CustomWeather, © 2014

Note: Actual official high and low records may vary slightly from our data, if they occured in-between our weather recording intervals... More about our weather records

Advertising

Alicante weather history for previous 24 hours

 ConditionsComfort  
Time TempWeatherWind HumidityBarometerVisibility
11:30 AM
Sep 20
84 °FSunny.2 mph40%30.01 "Hg10 mi
11:00 AM84 °FSunny.1 mph40%30.01 "Hg10 mi
10:30 AM82 °FSunny.No wind42%30.01 "Hg10 mi
10:00 AM81 °FSunny.2 mph45%30.01 "Hg10 mi
9:30 AM77 °FSunny.2 mph51%29.98 "Hg10 mi
9:00 AM75 °FPassing clouds.3 mph54%29.98 "HgN/A
8:30 AM73 °FClear.2 mph61%29.98 "Hg10 mi
8:00 AM73 °FPassing clouds.6 mph61%29.98 "HgN/A
7:30 AM70 °FClear.2 mph69%29.95 "Hg10 mi
7:00 AM72 °FClear.1 mph69%29.95 "Hg10 mi
6:30 AM70 °FClear.3 mph73%29.95 "Hg10 mi
6:00 AM70 °FClear.1 mph73%29.95 "Hg10 mi
5:30 AM70 °FClear.1 mph73%29.95 "Hg10 mi
4:30 AM72 °FClear.2 mph69%29.95 "Hg10 mi
4:00 AM72 °FClear.2 mph69%29.95 "Hg10 mi
3:00 AM70 °FClear.2 mph78%29.95 "Hg10 mi
2:30 AM72 °FClear.1 mph78%29.95 "Hg10 mi
2:00 AM72 °FClear.No wind78%29.95 "Hg10 mi
1:30 AM73 °FClear.No wind74%29.95 "Hg10 mi
1:00 AM75 °FClear.1 mph74%29.98 "Hg10 mi
12:30 AM75 °FClear.1 mph74%29.98 "Hg10 mi
12:00 AM77 °FClear.1 mph74%29.98 "Hg10 mi
11:30 PM
Sep 19
77 °FClear.2 mph74%29.95 "Hg10 mi
11:00 PM79 °FClear.1 mph70%29.95 "Hg10 mi
10:30 PM79 °FPassing clouds.3 mph70%29.95 "HgN/A
10:00 PM79 °FPassing clouds.3 mph70%29.95 "HgN/A
9:30 PM79 °FPassing clouds.3 mph70%29.92 "HgN/A
9:00 PM79 °FPassing clouds.3 mph70%29.92 "HgN/A
8:30 PM79 °FPassing clouds.1 mph65%29.89 "HgN/A
8:00 PM79 °FPassing clouds.3 mph65%29.89 "HgN/A
7:30 PM81 °FPassing clouds.3 mph58%29.89 "HgN/A
7:00 PM82 °FPassing clouds.9 mph55%29.89 "HgN/A
6:30 PM84 °FPassing clouds.7 mph48%29.89 "HgN/A
6:00 PM84 °FPassing clouds.7 mph51%29.89 "HgN/A
5:30 PM84 °FPassing clouds.10 mph45%29.89 "HgN/A
5:00 PM84 °FPassing clouds.10 mph40%29.89 "HgN/A
4:30 PM86 °FScattered clouds.12 mph35%29.92 "HgN/A
4:00 PM86 °FPartly sunny.14 mph31%29.89 "HgN/A
3:30 PM88 °FPassing clouds.12 mph31%29.89 "HgN/A
3:00 PM88 °FPassing clouds.8 mph29%29.89 "HgN/A
2:30 PM90 °FPassing clouds.9 mph26%29.89 "HgN/A
2:00 PM90 °FPassing clouds.8 mph24%29.89 "HgN/A
1:30 PM88 °FPassing clouds.8 mph27%29.89 "HgN/A
1:00 PM88 °FPassing clouds.7 mph29%29.89 "HgN/A
12:30 PM86 °FSunny.5 mph29%29.92 "Hg10 mi
12:00 PM84 °FPassing clouds.3 mph35%29.92 "HgN/A
Weather by CustomWeather, © 2014

See weather overviewHow to use our weather pages